Location: Klein M�hlingen
(51.9472°N, 11.7453°E)
Time: 10:42:04
(UTC+00:00)

ISS - Pass Details

Date: 29 September 2021
Orbit: 417 x 423 km, 51.6° (Epoch: 17 October)

Event Time Altitude Azimuth Distance (km) Brightness Sun altitude
Rises 18:12:58 0° 280° (W) 2,366 2.2 -12.8°
Reaches altitude 10° 18:15:04 10° 277° (W) 1,501 0.5 -13.1°
Maximum altitude 18:18:25 64° 196° (SSW) 469 -3.6 -13.6°
Enters shadow 18:20:05 27° 122° (ESE) 854 -2.8 -13.9°
